GBOIL EGCB-EGCB

Flight info

Callsign GBOIL
Flight time 0h 12m
Altitude 3000
Route MIRSI
Aircraft C172/L-SFG/C

Departure

Time 2026-04-24 14:59
Airport Manchester Barton Aerodrome (EGCB)

Arrival

Time 2026-04-24 15:11
Airport Manchester Barton Aerodrome (EGCB)
Time Latitude Longitude Altitude Speed Heading
2026-04-24 14:53 53.47097 -2.38803 73 ft 0 kts 37°
2026-04-24 14:53 53.47098 -2.38803 73 ft 2 kts 37°
2026-04-24 14:54 53.47112 -2.38713 74 ft 9 kts 100°
2026-04-24 14:54 53.47096 -2.38604 70 ft 12 kts 109°
2026-04-24 14:54 53.47105 -2.38508 66 ft 5 kts 56°
2026-04-24 14:54 53.47106 -2.38507 67 ft 0 kts 66°
2026-04-24 14:57 53.47108 -2.38498 72 ft 4 kts 62°
2026-04-24 14:57 53.47147 -2.38464 71 ft 11 kts 13°
2026-04-24 14:57 53.47193 -2.38446 77 ft 3 kts 13°
2026-04-24 14:58 53.47199 -2.38444 75 ft 0 kts 13°
2026-04-24 14:58 53.47208 -2.38462 76 ft 5 kts 291°
2026-04-24 14:58 53.47196 -2.38592 78 ft 29 kts 260°
2026-04-24 14:58 53.47143 -2.39222 64 ft 76 kts 264°
2026-04-24 14:59 53.47065 -2.40113 270 ft 79 kts 268°
2026-04-24 14:59 53.47125 -2.41047 498 ft 78 kts 281°
2026-04-24 14:59 53.47232 -2.42024 663 ft 89 kts 282°
2026-04-24 14:59 53.47345 -2.43059 897 ft 90 kts 279°
2026-04-24 15:00 53.47423 -2.44153 1038 ft 99 kts 278°
2026-04-24 15:00 53.47532 -2.45277 1277 ft 94 kts 278°
2026-04-24 15:00 53.47636 -2.46359 1529 ft 96 kts 279°
2026-04-24 15:00 53.48028 -2.47212 1776 ft 93 kts 322°
2026-04-24 15:01 53.48500 -2.47944 2032 ft 90 kts 321°
2026-04-24 15:01 53.48964 -2.48653 2280 ft 93 kts 320°
2026-04-24 15:01 53.49442 -2.49396 2555 ft 91 kts 319°
2026-04-24 15:01 53.49917 -2.50118 2798 ft 90 kts 319°
2026-04-24 15:02 53.50366 -2.50812 2993 ft 91 kts 320°
2026-04-24 15:02 53.50872 -2.51658 2992 ft 114 kts 303°
2026-04-24 15:02 53.51267 -2.52889 2997 ft 126 kts 301°
2026-04-24 15:02 53.51702 -2.54210 2996 ft 131 kts 300°
2026-04-24 15:03 53.52141 -2.55534 2993 ft 132 kts 301°
2026-04-24 15:03 53.52582 -2.56869 2981 ft 128 kts 300°
2026-04-24 15:03 53.53113 -2.58067 2994 ft 130 kts 320°
2026-04-24 15:03 53.53789 -2.59089 2996 ft 135 kts 320°
2026-04-24 15:04 53.54480 -2.60183 2987 ft 138 kts 320°
2026-04-24 15:04 53.55181 -2.61279 2998 ft 137 kts 320°
2026-04-24 15:04 53.55889 -2.62392 2991 ft 139 kts 320°
2026-04-24 15:04 53.56585 -2.63492 2990 ft 139 kts 320°
2026-04-24 15:05 53.57292 -2.64609 2986 ft 139 kts 320°
2026-04-24 15:05 53.58032 -2.65634 2991 ft 137 kts 329°
2026-04-24 15:05 53.58807 -2.66545 2985 ft 141 kts 320°
2026-04-24 15:05 53.59154 -2.68024 2957 ft 139 kts 263°
2026-04-24 15:06 53.58653 -2.69250 2967 ft 122 kts 200°
2026-04-24 15:06 53.57904 -2.69178 2982 ft 104 kts 149°
2026-04-24 15:06 53.57265 -2.68648 2991 ft 105 kts 150°
2026-04-24 15:06 53.56595 -2.68071 2981 ft 111 kts 150°
2026-04-24 15:07 53.55917 -2.67467 2975 ft 109 kts 150°
2026-04-24 15:07 53.55242 -2.66865 2989 ft 112 kts 150°
2026-04-24 15:07 53.54552 -2.66256 2977 ft 109 kts 149°
2026-04-24 15:07 53.53899 -2.65692 2977 ft 105 kts 150°
2026-04-24 15:08 53.53250 -2.65134 2975 ft 103 kts 149°
2026-04-24 15:08 53.52620 -2.64601 2987 ft 101 kts 150°
2026-04-24 15:08 53.51983 -2.64053 2983 ft 103 kts 149°
2026-04-24 15:08 53.51341 -2.63489 2931 ft 107 kts 149°
2026-04-24 15:09 53.50655 -2.62814 2693 ft 119 kts 143°
2026-04-24 15:09 53.50168 -2.61711 2419 ft 126 kts 102°
2026-04-24 15:09 53.49908 -2.60367 2252 ft 124 kts 121°
2026-04-24 15:09 53.49496 -2.59113 1976 ft 121 kts 121°
2026-04-24 15:10 53.49090 -2.57880 1712 ft 120 kts 120°
2026-04-24 15:10 53.48472 -2.57005 1461 ft 122 kts 169°
2026-04-24 15:10 53.47674 -2.57416 1226 ft 126 kts 211°
2026-04-24 15:10 53.47101 -2.58412 959 ft 122 kts 252°
2026-04-24 15:11 53.47309 -2.59795 601 ft 109 kts 290°
2026-04-24 15:11 53.47521 -2.60854 308 ft 86 kts 290°
2026-04-24 15:11 53.47708 -2.61724 139 ft 71 kts 290°
2026-04-24 15:11 53.47828 -2.62269 141 ft 31 kts 291°
2026-04-24 15:12 53.47891 -2.62533 147 ft 19 kts 293°
2026-04-24 15:12 53.47920 -2.62646 149 ft 0 kts 293°
2026-04-24 15:12 53.47908 -2.62645 149 ft 5 kts 111°
2026-04-24 15:13 53.47893 -2.62578 148 ft 9 kts 109°
2026-04-24 15:13 53.47863 -2.62444 145 ft 16 kts 107°
2026-04-24 15:13 53.47820 -2.62238 141 ft 21 kts 112°
2026-04-24 15:13 53.47765 -2.61980 136 ft 26 kts 108°
2026-04-24 15:14 53.47707 -2.61696 136 ft 24 kts 97°
2026-04-24 15:14 53.47698 -2.61676 136 ft 7 kts 290°
2026-04-24 15:14 53.47710 -2.61729 136 ft 21 kts 290°
2026-04-24 15:14 53.47821 -2.62243 141 ft 69 kts 290°
2026-04-24 15:15 53.47981 -2.63084 312 ft 79 kts 286°
2026-04-24 15:15 53.47787 -2.63949 432 ft 90 kts 201°
2026-04-24 15:15 53.47183 -2.64016 703 ft 87 kts 182°
2026-04-24 15:15 53.46576 -2.64050 955 ft 87 kts 180°
2026-04-24 15:16 53.45956 -2.64076 1213 ft 88 kts 178°
2026-04-24 15:16 53.45378 -2.64104 1452 ft 79 kts 178°
2026-04-24 15:16 53.44810 -2.64132 1722 ft 85 kts 178°
2026-04-24 15:16 53.44230 -2.64202 1972 ft 83 kts 180°
2026-04-24 15:17 53.43665 -2.64260 2220 ft 81 kts 178°
2026-04-24 15:17 53.43080 -2.64319 2483 ft 86 kts 178°
2026-04-24 15:17 53.42487 -2.64407 2741 ft 87 kts 179°
2026-04-24 15:17 53.41865 -2.64500 2984 ft 90 kts 179°
2026-04-24 15:18 53.41186 -2.64563 3004 ft 107 kts 180°
2026-04-24 15:18 53.40381 -2.64635 2988 ft 121 kts 180°
2026-04-24 15:18 53.39558 -2.64698 2990 ft 117 kts 180°
2026-04-24 15:18 53.38756 -2.64785 2993 ft 114 kts 180°
2026-04-24 15:19 53.37958 -2.64900 2989 ft 115 kts 180°
2026-04-24 15:19 53.37153 -2.65008 2996 ft 117 kts 180°
2026-04-24 15:19 53.36335 -2.65123 2995 ft 119 kts 180°
2026-04-24 15:19 53.35786 -2.65197 2991 ft 118 kts 180°
2026-04-24 15:20 53.34954 -2.65307 2993 ft 121 kts 181°
2026-04-24 15:20 53.33856 -2.65450 2995 ft 119 kts 181°
2026-04-24 15:20 53.33311 -2.65517 2982 ft 117 kts 180°
2026-04-24 15:20 53.32501 -2.65622 2977 ft 115 kts 180°
2026-04-24 15:21 53.31466 -2.65789 2995 ft 114 kts 179°
2026-04-24 15:21 53.30916 -2.65867 2991 ft 119 kts 180°
2026-04-24 15:21 53.30110 -2.65981 2995 ft 117 kts 181°
2026-04-24 15:21 53.29303 -2.66086 2981 ft 115 kts 179°
2026-04-24 15:22 53.28494 -2.66177 2985 ft 118 kts 180°
2026-04-24 15:22 53.27684 -2.66244 2989 ft 116 kts 181°
2026-04-24 15:22 53.26874 -2.66323 2980 ft 118 kts 180°
2026-04-24 15:23 53.25263 -2.66446 2989 ft 118 kts 180°
2026-04-24 15:23 53.23649 -2.66583 2977 ft 115 kts 181°
2026-04-24 15:23 53.22873 -2.66451 2983 ft 111 kts 159°
2026-04-24 15:24 53.20580 -2.65207 2980 ft 112 kts 160°
2026-04-24 15:25 53.19112 -2.64444 2972 ft 113 kts 160°
2026-04-24 15:25 53.17618 -2.63676 2981 ft 113 kts 160°
2026-04-24 15:26 53.15323 -2.62474 2979 ft 111 kts 160°
2026-04-24 15:27 53.13121 -2.61331 2989 ft 115 kts 160°
2026-04-24 15:27 53.10845 -2.60123 2978 ft 115 kts 158°
2026-04-24 15:28 53.07934 -2.58637 2978 ft 107 kts 160°
2026-04-24 15:29 53.06566 -2.57882 2980 ft 102 kts 160°
2026-04-24 15:30 53.04535 -2.56812 2980 ft 100 kts 160°
2026-04-24 15:31 53.01848 -2.55387 2985 ft 107 kts 161°
2026-04-24 15:32 52.98918 -2.53855 2969 ft 108 kts 160°
2026-04-24 15:33 52.95908 -2.52350 2969 ft 115 kts 160°
2026-04-24 15:33 52.93827 -2.50752 2978 ft 108 kts 128°
2026-04-24 15:34 52.92817 -2.48844 2960 ft 111 kts 132°
2026-04-24 15:35 52.91259 -2.46186 2975 ft 111 kts 134°
2026-04-24 15:35 52.90149 -2.44358 2971 ft 117 kts 135°
2026-04-24 15:35 52.89526 -2.43523 2968 ft 117 kts 156°
2026-04-24 15:36 52.88734 -2.43111 2971 ft 119 kts 160°
2026-04-24 15:36 52.87198 -2.42295 2971 ft 116 kts 160°
2026-04-24 15:36 52.86427 -2.41898 2973 ft 115 kts 160°
2026-04-24 15:37 52.85646 -2.41527 2964 ft 116 kts 160°
2026-04-24 15:37 52.84893 -2.41159 2962 ft 113 kts 160°
2026-04-24 15:37 52.84136 -2.40807 2973 ft 113 kts 161°
2026-04-24 15:37 52.83376 -2.40451 2970 ft 113 kts 161°
2026-04-24 15:38 52.82628 -2.40069 2962 ft 114 kts 160°
2026-04-24 15:38 52.81864 -2.39690 2970 ft 115 kts 160°
2026-04-24 15:38 52.81085 -2.39304 2970 ft 117 kts 159°
2026-04-24 15:38 52.80311 -2.38946 2973 ft 115 kts 161°
2026-04-24 15:39 52.79536 -2.38565 2971 ft 115 kts 159°
2026-04-24 15:39 52.78777 -2.38190 2962 ft 113 kts 159°
2026-04-24 15:39 52.78031 -2.37843 2964 ft 111 kts 161°
2026-04-24 15:39 52.77280 -2.37491 2966 ft 113 kts 160°
2026-04-24 15:40 52.76511 -2.37138 2972 ft 116 kts 160°
2026-04-24 15:40 52.75733 -2.36785 2967 ft 114 kts 160°
2026-04-24 15:40 52.74981 -2.36451 2969 ft 113 kts 160°
2026-04-24 15:40 52.74222 -2.36102 2964 ft 114 kts 160°
2026-04-24 15:41 52.73460 -2.35733 2963 ft 115 kts 160°
2026-04-24 15:41 52.72705 -2.35361 2970 ft 112 kts 161°
2026-04-24 15:41 52.71952 -2.34990 2980 ft 112 kts 159°
2026-04-24 15:41 52.71195 -2.34626 2966 ft 112 kts 160°
2026-04-24 15:42 52.70463 -2.34264 2974 ft 112 kts 160°
2026-04-24 15:42 52.69718 -2.33892 2977 ft 112 kts 160°
2026-04-24 15:42 52.68962 -2.33509 2976 ft 114 kts 161°
2026-04-24 15:42 52.68207 -2.33124 2969 ft 111 kts 160°
2026-04-24 15:43 52.67466 -2.32763 2977 ft 113 kts 160°
2026-04-24 15:43 52.66710 -2.32377 2974 ft 114 kts 160°
2026-04-24 15:43 52.65945 -2.31999 2977 ft 114 kts 161°
2026-04-24 15:43 52.65182 -2.31608 2967 ft 115 kts 160°
2026-04-24 15:44 52.64418 -2.31212 2977 ft 116 kts 160°
2026-04-24 15:44 52.63638 -2.30801 2979 ft 119 kts 160°
2026-04-24 15:44 52.62860 -2.30388 2973 ft 117 kts 160°
2026-04-24 15:44 52.62078 -2.29979 2967 ft 116 kts 160°
2026-04-24 15:45 52.61311 -2.29603 2968 ft 116 kts 160°
2026-04-24 15:45 52.60499 -2.29203 2740 ft 125 kts 160°
2026-04-24 15:45 52.59672 -2.28782 2474 ft 123 kts 160°
2026-04-24 15:45 52.58897 -2.28199 2223 ft 124 kts 150°
2026-04-24 15:46 52.58140 -2.27549 1982 ft 122 kts 150°
2026-04-24 15:46 52.57416 -2.26961 1963 ft 111 kts 150°
2026-04-24 15:46 52.56738 -2.26415 1965 ft 108 kts 150°
2026-04-24 15:46 52.56072 -2.25865 1934 ft 108 kts 149°
2026-04-24 15:47 52.55427 -2.25302 1815 ft 95 kts 149°
2026-04-24 15:47 52.54900 -2.24855 1646 ft 85 kts 151°
2026-04-24 15:47 52.54370 -2.24401 1409 ft 85 kts 149°
2026-04-24 15:47 52.53848 -2.23961 1141 ft 83 kts 150°
2026-04-24 15:48 52.53309 -2.23681 977 ft 77 kts 161°
2026-04-24 15:48 52.52780 -2.23637 887 ft 79 kts 177°
2026-04-24 15:48 52.52238 -2.23852 759 ft 82 kts 196°
2026-04-24 15:48 52.51766 -2.24386 681 ft 88 kts 226°
2026-04-24 15:49 52.51620 -2.25385 379 ft 98 kts 283°
2026-04-24 15:49 52.51689 -2.26292 279 ft 55 kts 273°
2026-04-24 15:49 52.51676 -2.26621 280 ft 19 kts 220°
2026-04-24 15:49 52.51593 -2.26704 284 ft 11 kts 213°
2026-04-24 15:50 52.51550 -2.26698 286 ft 7 kts 103°
2026-04-24 15:50 52.51541 -2.26620 284 ft 8 kts 96°
2026-04-24 15:50 52.51535 -2.26531 281 ft 8 kts 93°
2026-04-24 15:50 52.51569 -2.26500 280 ft 6 kts
2026-04-24 15:51 52.51599 -2.26488 279 ft 1 kts 19°
2026-04-24 15:51 52.51603 -2.26485 279 ft 0 kts 15°
2026-04-24 15:54 52.51605 -2.26484 279 ft 1 kts 31°
2026-04-24 15:54 52.51590 -2.26457 279 ft 6 kts 165°
2026-04-24 15:54 52.51544 -2.26435 280 ft 9 kts 131°
2026-04-24 15:54 52.51524 -2.26325 280 ft 12 kts 102°
2026-04-24 15:55 52.51491 -2.26171 282 ft 16 kts 133°
2026-04-24 15:55 52.51405 -2.26026 284 ft 19 kts 153°
2026-04-24 15:55 52.51288 -2.25905 287 ft 21 kts 112°
2026-04-24 15:55 52.51248 -2.25681 290 ft 19 kts 83°
2026-04-24 15:56 52.51295 -2.25458 289 ft 24 kts 63°
2026-04-24 15:56 52.51443 -2.25326 289 ft 27 kts 356°
2026-04-24 15:56 52.51624 -2.25420 291 ft 16 kts 307°
2026-04-24 15:56 52.51628 -2.25458 289 ft 0 kts 276°
2026-04-24 15:57 52.51639 -2.25649 287 ft 44 kts 279°
2026-04-24 15:57 52.51691 -2.26341 279 ft 54 kts 277°
2026-04-24 15:57 52.51682 -2.26606 279 ft 24 kts 214°
2026-04-24 15:57 52.51544 -2.26699 286 ft 14 kts 102°
2026-04-24 15:58 52.51535 -2.26524 281 ft 29 kts 89°
2026-04-24 15:58 52.51510 -2.26241 284 ft 27 kts 105°
2026-04-24 15:58 52.51344 -2.25981 286 ft 30 kts 151°
2026-04-24 15:58 52.51255 -2.25783 288 ft 23 kts 105°
2026-04-24 15:59 52.51283 -2.25501 289 ft 29 kts 66°
2026-04-24 15:59 52.51405 -2.25326 289 ft 20 kts
2026-04-24 15:59 52.51515 -2.25353 289 ft 5 kts 334°
2026-04-24 15:59 52.51554 -2.25369 291 ft 12 kts 341°
2026-04-24 16:00 52.51626 -2.25426 289 ft 0 kts 278°
2026-04-24 16:00 52.51630 -2.25480 289 ft 23 kts 277°
2026-04-24 16:00 52.51678 -2.26050 282 ft 74 kts 281°
2026-04-24 16:00 52.51705 -2.26902 469 ft 71 kts 273°
2026-04-24 16:01 52.51931 -2.27725 436 ft 98 kts 338°
2026-04-24 16:01 52.52510 -2.27490 691 ft 77 kts 39°
2026-04-24 16:01 52.52955 -2.27228 964 ft 64 kts 54°
2026-04-24 16:01 52.53281 -2.26776 1175 ft 70 kts
2026-04-24 16:02 52.53630 -2.26603 633 ft 31 kts 34°
2026-04-24 16:02 52.53614 -2.26568 285 ft 0 kts 157°